EW7987 Weather Reports


time (UTC)temp
F
wind
direction
speed
knots
gust
knots
rain 1hr
in
rain 24hr
in
rain mn
in
humidity
%
barometer
mb
20260507151502 61 360 0.0 1.7 0.00 0.12 0.03 55 1003.0
20260507151001 60 360 0.0 2.6 0.00 0.12 0.03 54 1003.0
20260507150501 60 360 0.0 2.6 0.00 0.12 0.03 53 1003.2
20260507150101 60 360 0.0 0.9 0.00 0.12 0.03 55 1003.2
20260507145557 59 360 0.0 0.9 0.00 0.12 0.03 60 1003.2
20260507145059 59 360 0.0 0.0 0.00 0.12 0.03 60 1003.3
20260507144600 59 360 0.0 0.0 0.00 0.12 0.03 60 1003.3
20260507144056 59 360 0.0 5.2 0.00 0.12 0.03 60 1003.4
20260507143553 58 360 0.0 5.2 0.00 0.12 0.03 63 1003.3
20260507143100 58 360 0.0 4.3 0.00 0.12 0.03 64 1003.3
20260507142553 58 360 0.0 0.9 0.00 0.12 0.03 65 1003.4
20260507142050 57 360 0.0 3.5 0.00 0.12 0.03 66 1003.4
20260507141550 57 360 0.0 3.5 0.00 0.12 0.03 68 1003.5
20260507141050 57 360 0.0 0.9 0.00 0.12 0.03 71 1003.4
20260507140549 56 360 0.0 1.7 0.00 0.12 0.03 67 1003.4
20260507140047 56 360 0.0 1.7 0.00 0.12 0.03 70 1003.5
20260507135547 56 360 0.0 0.0 0.00 0.12 0.03 71 1003.4
20260507135046 56 360 0.0 4.3 0.00 0.12 0.03 72 1003.3
20260507134548 55 360 0.0 4.3 0.00 0.12 0.03 71 1003.2
20260507134046 55 360 0.0 0.0 0.00 0.12 0.03 72 1003.3
20260507133546 55 360 0.0 0.0 0.00 0.12 0.03 74 1003.3
20260507133050 54 360 0.0 0.0 0.00 0.12 0.03 73 1003.3
20260507132543 54 360 0.0 0.9 0.00 0.12 0.03 76 1003.4
20260507132043 53 360 0.0 2.6 0.00 0.12 0.03 78 1003.5
20260507131543 53 34 0.0 2.6 0.00 0.12 0.03 80 1003.5
20260507131042 52 360 0.0 2.6 0.00 0.12 0.03 79 1003.5
20260507130543 52 360 0.0 4.3 0.00 0.12 0.03 81 1003.6
20260507130042 51 360 0.0 4.3 0.00 0.12 0.03 81 1003.6
20260507125538 51 360 0.0 1.7 0.00 0.12 0.03 82 1003.5
20260507125036 50 360 0.0 2.6 0.00 0.12 0.03 83 1003.5
20260507124540 50 360 0.0 4.3 0.00 0.12 0.03 85 1003.6
20260507124036 50 323 0.0 4.3 0.00 0.12 0.03 88 1003.6
20260507123536 49 360 0.0 0.9 0.00 0.12 0.03 89 1003.7
20260507123035 49 255 0.0 6.1 0.00 0.12 0.03 90 1003.7
20260507122535 49 227 0.0 6.1 0.00 0.12 0.03 91 1003.7
20260507122035 49 264 0.0 4.3 0.00 0.12 0.03 92 1003.7
20260507121535 49 303 0.0 4.3 0.00 0.12 0.03 92 1003.7
20260507121036 49 230 0.0 0.0 0.00 0.12 0.03 92 1003.7
20260507120533 49 229 0.0 0.0 0.00 0.12 0.03 92 1003.8
20260507120033 48 227 0.0 0.0 0.00 0.12 0.03 92 1003.7
20260507115532 48 274 0.0 0.0 0.00 0.12 0.03 92 1003.6
20260507115031 48 273 0.0 0.0 0.00 0.12 0.03 92 1003.5
20260507114553 48 224 0.0 0.0 0.00 0.12 0.03 92 1003.6
20260507114031 48 215 0.0 0.0 0.00 0.12 0.03 92 1003.6
20260507113531 48 216 0.0 0.0 0.00 0.12 0.03 92 1003.6
20260507113057 48 209 0.0 0.0 0.00 0.12 0.03 92 1003.6
20260507112530 48 209 0.0 0.0 0.00 0.12 0.03 92 1003.5
20260507112028 48 209 0.0 0.0 0.00 0.12 0.03 92 1003.5
20260507111537 48 209 0.0 0.0 0.00 0.12 0.03 92 1003.5
20260507111026 48 209 0.0 0.0 0.00 0.12 0.03 92 1003.6
20260507110525 48 313 0.0 0.0 0.00 0.12 0.03 92 1003.4
20260507110025 48 348 0.0 0.0 0.00 0.12 0.03 92 1003.3
20260507105524 48 348 0.0 0.0 0.00 0.12 0.03 92 1003.1
20260507105022 48 360 0.0 0.0 0.00 0.12 0.03 92 1003.1
20260507104522 48 242 0.0 0.0 0.00 0.12 0.03 92 1003.4
20260507104022 48 242 0.0 0.0 0.00 0.12 0.03 91 1003.3
20260507103522 48 242 0.0 0.0 0.00 0.12 0.03 92 1003.4
20260507103025 48 251 0.0 0.0 0.00 0.12 0.03 91 1003.4
20260507102520 48 255 0.0 0.0 0.00 0.12 0.03 91 1003.2
20260507102020 48 255 0.0 0.0 0.00 0.12 0.03 91 1003.0
20260507101520 48 255 0.0 0.0 0.00 0.12 0.03 91 1002.8
20260507101023 48 303 0.0 0.0 0.01 0.12 0.03 91 1002.8
20260507100518 48 303 0.0 0.0 0.01 0.12 0.03 91 1002.7
20260507100017 48 303 0.0 0.0 0.01 0.12 0.03 91 1002.7
20260507095517 48 291 0.0 0.0 0.01 0.12 0.03 90 1002.5
20260507095017 48 269 0.0 0.0 0.01 0.12 0.03 90 1002.8
20260507094517 48 267 0.0 0.0 0.01 0.12 0.03 90 1002.8
20260507094016 48 267 0.0 0.0 0.02 0.12 0.03 90 1002.5
20260507093517 48 275 0.0 0.0 0.02 0.12 0.03 90 1002.5
20260507093016 48 275 0.0 0.0 0.02 0.12 0.03 90 1002.6
20260507092517 48 275 0.0 0.0 0.02 0.12 0.03 89 1002.6
20260507092015 48 259 0.0 0.0 0.02 0.12 0.03 89 1002.9
20260507091514 48 259 0.0 0.0 0.01 0.11 0.02 89 1003.0
20260507091014 48 259 0.0 0.0 0.01 0.11 0.02 89 1002.8
20260507090516 48 259 0.0 0.0 0.01 0.11 0.02 89 1002.8
20260507090013 48 258 0.0 0.0 0.01 0.11 0.02 89 1003.0
20260507085514 48 331 0.0 0.0 0.01 0.11 0.02 89 1003.2
20260507085013 48 314 0.0 0.0 0.01 0.11 0.02 88 1003.3
20260507084512 48 314 0.0 0.0 0.01 0.11 0.02 88 1003.2
20260507084010 49 314 0.0 0.0 0.00 0.10 0.01 88 1003.1
20260507083510 49 304 0.0 0.0 0.00 0.10 0.01 88 1003.0
20260507083010 49 304 0.0 0.0 0.00 0.10 0.01 88 1003.0
20260507082510 49 266 0.0 0.0 0.01 0.10 0.01 88 1002.8
20260507082009 49 261 0.0 0.0 0.01 0.10 0.01 87 1003.0
20260507081508 49 298 0.0 0.0 0.01 0.10 0.01 87 1002.9
20260507081007 49 274 0.0 0.0 0.01 0.10 0.01 87 1002.8
20260507080510 49 274 0.0 0.0 0.01 0.10 0.01 87 1002.6
20260507080006 50 274 0.0 0.0 0.01 0.10 0.01 86 1002.4
20260507075505 50 274 0.0 0.0 0.01 0.10 0.01 86 1002.7
20260507075004 50 360 0.0 0.0 0.01 0.10 0.01 86 1002.9
20260507074503 50 316 0.0 0.0 0.01 0.10 0.01 86 1002.8
20260507074004 51 215 0.0 0.0 0.01 0.10 0.01 85 1002.9
20260507073503 51 214 0.0 0.0 0.01 0.10 0.01 85 1002.8
20260507073001 51 249 0.0 0.0 0.01 0.10 0.01 85 1002.5
20260507072501 51 68 0.0 0.0 0.00 0.09 0.00 84 1002.6
20260507072059 51 355 0.0 0.9 0.00 0.09 0.00 84 1002.8
20260507071558 51 270 0.0 0.9 0.00 0.09 0.00 85 1002.6
20260507071058 52 360 0.0 0.0 0.00 0.09 0.00 85 1002.2
20260507070600 52 63 0.0 0.0 0.00 0.09 0.00 85 1002.1
20260507070104 52 249 0.0 0.0 0.00 0.09 0.00 85 1002.1
20260507065558 52 296 0.0 0.0 0.00 0.09 0.00 86 1002.1
20260507065054 52 256 0.0 0.0 0.00 0.09 0.00 85 1002.0
20260507064555 52 271 0.0 0.0 0.00 0.09 0.00 86 1001.9
20260507064054 52 269 0.0 5.2 0.00 0.09 0.00 86 1002.0
20260507063553 53 270 0.0 5.2 0.00 0.09 0.00 86 1001.9
20260507063052 53 239 0.0 0.0 0.00 0.09 0.00 87 1002.0
20260507062551 53 296 0.0 0.0 0.00 0.09 0.00 88 1002.1
20260507062050 53 349 0.0 0.9 0.00 0.09 0.00 88 1002.2
20260507061550 53 349 0.0 0.9 0.00 0.09 0.00 88 1002.2
20260507061052 54 360 0.0 0.0 0.00 0.09 0.00 88 1002.3
20260507060553 54 244 0.0 0.0 0.00 0.09 0.00 88 1002.1
20260507060056 54 242 0.0 0.0 0.00 0.09 0.00 88 1002.0
20260507055547 54 242 0.0 0.0 0.00 0.09 0.00 88 1002.0
20260507055048 54 242 0.0 0.0 0.00 0.09 0.00 88 1002.2
20260507054546 54 227 0.0 0.0 0.00 0.09 0.00 88 1002.1
20260507054049 54 227 0.0 0.0 0.00 0.09 0.00 88 1002.2
20260507053546 54 269 0.0 0.0 0.00 0.09 0.00 88 1002.3
20260507053046 54 311 0.0 0.0 0.00 0.09 0.00 89 1002.2
20260507052547 54 281 0.0 3.5 0.00 0.09 0.00 89 1002.3
20260507052045 54 163 0.0 3.5 0.00 0.09 0.00 89 1002.4
20260507051544 54 16 0.0 0.9 0.00 0.09 0.00 89 1002.3
20260507051044 55 257 0.0 2.6 0.00 0.09 0.00 90 1002.2
20260507050544 55 14 0.0 2.6 0.00 0.09 0.00 90 1002.3
20260507050043 55 313 0.0 0.0 0.00 0.09 0.00 90 1002.1
20260507045544 55 45 0.0 0.0 0.00 0.09 0.00 90 1002.2
20260507045040 55 184 0.0 2.6 0.00 0.09 0.00 91 1002.2
20260507044541 55 207 0.0 4.3 0.00 0.09 0.00 91 1002.1
20260507044038 56 267 0.0 4.3 0.00 0.09 0.00 91 1002.4
20260507043537 56 254 0.0 5.2 0.00 0.09 0.00 92 1002.2
20260507043048 56 360 0.0 5.2 0.00 0.09 0.00 92 1002.2
20260507042535 56 315 0.0 3.5 0.00 0.09 0.00 92 1002.1
20260507042037 57 327 0.0 3.5 0.00 0.09 0.00 93 1002.1
20260507041534 57 238 0.0 2.6 0.00 0.09 0.00 93 1002.1
20260507041034 57 263 0.0 1.7 0.00 0.09 0.00 93 1002.2
20260507040533 57 252 0.0 1.7 0.00 0.09 0.00 93 1002.2
20260507040031 57 253 0.0 2.6 0.00 0.09 0.00 93 1002.1
20260507035530 57 254 0.0 4.3 0.00 0.09 0.09 93 1002.1
20260507035030 58 261 0.0 4.3 0.00 0.09 0.09 94 1002.2
20260507034534 58 281 0.0 6.1 0.00 0.09 0.09 94 1002.3
20260507034031 58 279 0.9 6.1 0.00 0.09 0.09 94 1002.2
20260507033529 58 236 0.0 1.7 0.00 0.09 0.09 94 1002.1
20260507033029 58 264 0.0 6.1 0.01 0.09 0.09 94 1001.9
20260507032530 58 272 0.0 3.5 0.01 0.09 0.09 94 1001.9
20260507032029 58 274 0.0 3.5 0.01 0.09 0.09 94 1001.7
20260507031529 58 201 0.0 1.7 0.01 0.09 0.09 94 1001.6
20260507031029 58 254 0.0 3.5 0.01 0.09 0.09 94 1001.7
20260507030531 58 269 0.0 3.5 0.01 0.09 0.09 94 1001.6
20260507030028 58 229 0.0 3.5 0.01 0.09 0.09 94 1001.4
20260507025528 58 213 0.0 3.5 0.01 0.09 0.09 94 1001.3
20260507025030 58 210 0.0 1.7 0.01 0.09 0.09 94 1001.4
20260507024528 58 244 0.0 3.5 0.01 0.09 0.09 94 1001.4
20260507024028 58 245 0.0 3.5 0.01 0.09 0.09 94 1001.1
20260507023530 58 245 0.0 3.5 0.01 0.09 0.09 94 1001.1
20260507023028 58 232 0.0 3.5 0.00 0.08 0.08 94 1001.2
20260507022528 58 232 0.0 3.5 0.00 0.08 0.08 94 1001.3
20260507022030 58 229 0.0 7.0 0.00 0.08 0.08 94 1001.3
20260507021527 58 211 0.0 7.0 0.00 0.08 0.08 94 1001.4
20260507021030 58 217 0.0 3.5 0.00 0.08 0.08 94 1001.2
20260507020527 58 238 0.0 3.5 0.00 0.08 0.08 94 1001.2
20260507020043 58 202 0.0 1.7 0.00 0.08 0.08 94 1001.2
20260507015526 58 317 0.0 2.6 0.00 0.08 0.08 94 1001.3
20260507015026 58 229 0.0 2.6 0.00 0.08 0.08 94 1001.2
20260507014526 58 235 0.0 2.6 0.00 0.08 0.08 94 1001.3
20260507014025 58 193 0.0 0.9 0.00 0.08 0.08 94 1001.3
20260507013527 58 178 0.0 3.5 0.00 0.08 0.08 94 1001.1
20260507013027 58 159 0.0 4.3 0.00 0.08 0.08 94 1001.1
20260507012529 58 184 0.0 10.4 0.00 0.08 0.08 94 1001.2
20260507012026 58 184 0.0 10.4 0.00 0.08 0.08 94 1001.1
20260507011539 58 227 0.0 5.2 0.00 0.08 0.08 94 1001.2
20260507011025 58 109 0.0 5.2 0.00 0.08 0.08 94 1001.3
20260507010525 58 220 0.0 5.2 0.00 0.08 0.08 94 1001.4
20260507010029 58 269 0.9 5.2 0.00 0.08 0.08 94 1001.4
20260507005524 58 348 0.0 3.5 0.00 0.08 0.08 94 1001.4
20260507005024 58 154 0.0 6.1 0.00 0.08 0.08 94 1001.4
20260507004524 58 243 0.0 6.1 0.00 0.08 0.08 94 1001.4
20260507004024 58 188 0.0 2.6 0.00 0.08 0.08 94 1001.4
20260507003526 58 194 0.0 4.3 0.00 0.08 0.08 94 1001.4
20260507003024 58 285 0.0 2.6 0.00 0.08 0.08 94 1001.4
20260507002524 58 121 0.0 0.9 0.00 0.08 0.08 94 1001.4
20260507002024 58 261 0.0 2.6 0.00 0.08 0.08 94 1001.4
20260507001553 58 236 0.0 2.6 0.00 0.08 0.08 94 1001.3
20260507001026 58 207 0.0 1.7 0.00 0.08 0.08 94 1001.3
20260507000523 58 213 0.0 7.0 0.00 0.08 0.08 93 1001.3
20260507000024 58 231 0.0 7.0 0.01 0.08 0.08 94 1001.1
20260506235526 58 191 0.0 0.9 0.01 0.08 0.08 94 1001.0
20260506235023 58 157 0.0 1.7 0.02 0.08 0.08 93 1000.9
20260506234522 58 154 0.0 1.7 0.02 0.08 0.08 93 1001.0
20260506234022 58 207 0.0 1.7 0.03 0.08 0.08 93 1001.0
20260506233522 58 232 0.0 2.6 0.03 0.08 0.08 93 1001.0
20260506233023 58 213 0.0 2.6 0.03 0.08 0.08 93 1001.0
20260506232522 58 170 0.0 1.7 0.03 0.08 0.08 93 1001.1
20260506232022 59 190 0.0 1.7 0.03 0.08 0.08 93 1000.9
20260506231522 59 195 0.0 0.9 0.03 0.08 0.08 93 1000.9
20260506231025 59 198 0.0 0.9 0.03 0.08 0.08 93 1000.9
20260506230524 59 82 0.0 0.9 0.03 0.08 0.08 93 1000.9
20260506230020 59 104 0.0 0.9 0.02 0.07 0.07 93 1001.0
20260506225520 59 218 0.0 4.3 0.02 0.07 0.07 93 1000.9
20260506225019 59 219 0.0 4.3 0.01 0.06 0.06 93 1001.0
20260506224519 59 195 0.0 0.0 0.01 0.06 0.06 92 1001.1
20260506224019 59 165 0.0 2.6 0.00 0.05 0.05 92 1001.1
20260506223518 59 163 0.0 2.6 0.00 0.05 0.05 92 1001.2
20260506223027 59 186 0.0 0.0 0.00 0.05 0.05 92 1001.1
20260506222520 59 209 0.0 0.0 0.00 0.05 0.05 92 1001.1
20260506222017 59 180 0.0 0.0 0.00 0.05 0.05 92 1001.2
20260506221517 59 105 0.0 0.0 0.00 0.05 0.05 92 1001.2
20260506221018 59 171 0.0 1.7 0.00 0.05 0.05 92 1001.3
20260506220516 59 163 0.0 1.7 0.00 0.05 0.05 91 1001.3
20260506220016 60 165 0.0 0.0 0.00 0.05 0.05 91 1001.4
20260506215515 60 200 0.0 6.1 0.00 0.05 0.05 91 1001.4
20260506215015 60 139 0.0 6.1 0.00 0.05 0.05 91 1001.4
20260506214515 60 199 0.0 0.0 0.00 0.05 0.05 91 1001.4
20260506214014 60 211 0.0 0.9 0.00 0.05 0.05 91 1001.5
20260506213517 60 130 0.0 3.5 0.00 0.05 0.05 91 1001.6
20260506213012 60 162 0.0 2.6 0.00 0.05 0.05 91 1001.7
20260506212512 60 199 0.0 2.6 0.00 0.05 0.05 91 1001.7
20260506212016 60 168 0.0 2.6 0.00 0.05 0.05 91 1001.7
20260506211512 60 205 0.0 0.0 0.01 0.05 0.05 91 1001.7
20260506211011 60 211 0.0 0.0 0.01 0.05 0.05 91 1001.7
20260506210517 60 263 0.0 1.7 0.01 0.05 0.05 90 1001.8
20260506210019 60 290 0.0 3.5 0.01 0.05 0.05 90 1001.9
20260506205509 60 291 0.0 3.5 0.01 0.05 0.05 90 1001.9
20260506205012 60 223 0.0 6.1 0.01 0.05 0.05 90 1001.8
20260506204509 60 172 0.0 5.2 0.01 0.05 0.05 90 1001.9
20260506204009 60 209 0.0 3.5 0.01 0.05 0.05 90 1001.9
20260506203511 60 200 0.0 0.9 0.01 0.05 0.05 90 1001.9
20260506203010 60 186 0.0 2.6 0.01 0.05 0.05 90 1002.0
20260506202508 60 180 0.0 2.6 0.01 0.05 0.05 90 1001.9
20260506202008 60 192 0.0 4.3 0.01 0.04 0.04 89 1002.1
20260506201510 60 173 0.0 4.3 0.01 0.04 0.04 89 1002.0
20260506201007 60 217 0.0 8.7 0.02 0.04 0.04 89 1002.0
20260506200507 60 129 0.0 8.7 0.02 0.04 0.04 89 1002.2
20260506200006 60 173 0.0 2.6 0.03 0.04 0.04 89 1002.1
20260506195507 60 196 0.0 2.6 0.03 0.04 0.04 88 1002.0
20260506195006 61 258 0.0 2.6 0.03 0.04 0.04 88 1002.1
20260506194507 61 235 0.0 3.5 0.03 0.04 0.04 87 1002.0
20260506194008 61 360 0.0 3.5 0.04 0.04 0.04 87 1002.0
20260506193505 62 360 0.0 2.6 0.04 0.04 0.04 87 1002.1
20260506193005 62 360 0.0 3.5 0.04 0.04 0.04 86 1002.1
20260506192504 62 360 0.0 3.5 0.04 0.04 0.04 86 1002.1
20260506192004 63 179 0.0 0.0 0.03 0.03 0.03 85 1002.2
20260506191507 63 177 0.0 3.5 0.02 0.02 0.02 84 1002.1
20260506191003 63 360 0.0 3.5 0.02 0.02 0.02 82 1002.1
20260506190502 64 360 0.0 4.3 0.02 0.02 0.02 82 1002.1
20260506190002 64 110 0.0 4.3 0.01 0.01 0.01 80 1002.2
20260506185503 65 360 0.0 0.0 0.01 0.01 0.01 79 1002.3
20260506185000 65 163 0.0 0.0 0.01 0.01 0.01 78 1002.3
20260506184503 66 360 0.0 0.0 0.01 0.01 0.01 76 1002.3
20260506184103 66 360 0.0 0.0 0.00 0.00 0.00 75 1002.3
20260506183604 66 196 0.0 5.2 0.00 0.00 0.00 73 1002.4
20260506183109 67 236 0.0 7.8 0.00 0.00 0.00 71 1002.5
20260506182559 67 228 0.9 7.8 0.00 0.00 0.00 70 1002.6
20260506182059 68 240 0.0 4.3 0.00 0.00 0.00 70 1002.6
20260506181604 68 360 0.0 6.1 0.00 0.00 0.00 68 1002.5
20260506181059 68 360 1.7 11.3 0.00 0.00 0.00 66 1002.5
20260506180600 69 360 3.5 11.3 0.00 0.00 0.00 64 1002.5
20260506180100 70 360 0.0 3.5 0.00 0.00 0.00 63 1002.5
20260506175558 70 360 0.0 0.9 0.00 0.00 0.00 60 1002.7
20260506175101 71 360 0.0 0.9 0.00 0.00 0.00 59 1002.6
20260506174558 71 360 0.0 0.9 0.00 0.00 0.00 59 1002.5
20260506174058 71 217 0.0 2.6 0.00 0.00 0.00 57 1002.5
20260506173558 72 128 0.0 5.2 0.00 0.00 0.00 58 1002.5
20260506173109 72 192 0.0 5.2 0.00 0.00 0.00 57 1002.6
20260506172557 73 360 0.0 4.3 0.00 0.00 0.00 57 1002.5
20260506172057 73 360 0.0 5.2 0.00 0.00 0.00 57 1002.5
20260506171557 73 360 0.0 5.2 0.00 0.00 0.00 57 1002.6
20260506171057 72 144 0.0 2.6 0.00 0.00 0.00 58 1002.7
20260506170557 72 360 0.0 7.0 0.00 0.00 0.00 57 1002.7
20260506170108 73 360 0.0 8.7 0.00 0.00 0.00 56 1002.6
20260506165556 73 360 0.0 8.7 0.00 0.00 0.00 56 1002.9
20260506165054 72 360 0.0 7.0 0.00 0.00 0.00 59 1002.7
20260506164613 71 215 0.0 4.3 0.00 0.00 0.00 60 1002.7
20260506164053 71 201 0.0 3.5 0.00 0.00 0.00 60 1002.8
20260506163552 71 192 0.0 7.0 0.00 0.00 0.00 60 1003.0
20260506163059 71 180 0.0 7.0 0.00 0.00 0.00 60 1003.1
20260506162552 71 117 0.0 0.9 0.00 0.00 0.00 62 1003.2
20260506162049 71 146 0.0 1.7 0.00 0.00 0.00 62 1003.2
20260506161550 70 178 0.0 7.0 0.00 0.00 0.00 62 1003.2
20260506161050 70 175 0.0 7.0 0.00 0.00 0.00 62 1003.4
20260506160549 70 236 0.0 0.9 0.00 0.00 0.00 62 1003.5
20260506160055 70 156 0.0 0.0 0.00 0.00 0.00 63 1003.6
20260506155546 70 219 0.0 1.7 0.00 0.00 0.00 63 1003.6
20260506155045 70 182 0.0 1.7 0.00 0.00 0.00 63 1003.7
20260506154547 70 152 0.0 1.7 0.00 0.00 0.00 64 1003.8
20260506154045 70 144 0.0 1.7 0.00 0.00 0.00 63 1003.9
20260506153549 70 207 0.0 0.9 0.00 0.00 0.00 62 1003.9
20260506153043 70 360 0.0 5.2 0.00 0.00 0.00 62 1003.9
20260506152543 70 360 0.0 0.9 0.00 0.00 0.00 62 1003.9
20260506152045 70 360 0.0 0.9 0.00 0.00 0.00 63 1004.2
20260506151542 70 360 0.0 0.9 0.00 0.00 0.00 62 1004.2